M2 PATHFINDER

Last updated on Wed Nov 05 2025 00:03:48 GMT+0000 (Coordinated Universal Time)

1 45727U 20037E 25308.44155001 .00003089 00000+0 23302-3 0 9997 2 45727 97.8156 132.3169 0011804 182.0112 178.1067 15.03156580291711
UTC large
Height (km)
Speed (km/s)
/
Latitude / Longitude
Inclination (degrees)
Orbital Period (minutes)
Azimuth
Elevation
Range (km)
Doppler Factor

Next 0 passes for location: London (51.5072 / 0.1276)

Sorry there are no passes over London.